Date String (YYYY-MM-DD hh:mm:ss) UTC,Instrument flags,absolute air pressure of the measurement (hPa),sample flow rate (lpm),inlet stack bypass flow (lpm),air temperature of the measurement (°C),ambient temperature measured by the external sensor (°C),aerosol sample conditioner tube jacket temperature (°C),OPC LED temperature (°C),internal box temperature (°C),relative humidity of the measurement (%),span deviation,mass concentration of particles derived from Lorenz-Mie calculation of OPC scattering (μg/m³),mass concentration of particles derived from Lorenz-Mie calculation of OPC scattering (μg/m³),mass concentration of particles derived from Lorenz-Mie calculation of OPC scattering (μg/m³)
DateTimeUTC,F1_M11,P_M11,Q1_M11,Q2_M11,T1_M11,T2_M11,T3_M11,T4_M11,T5_M11,U1_M11,ZSPAN_M11,X0_M11,X2_M11,X1_M11
2024-03-08 16:00:00,SystemResetWarning,0832.4,4.98,000.00,019.0,019.2,000.0,027.4,021.2,18.6,0000.0,0003.74,0003.24,0003.16
2024-03-08 16:01:00,SystemResetWarning,0832.4,5.01,000.00,019.0,019.0,000.0,027.4,021.1,18.4,0000.0,0003.74,0003.24,0003.17
2024-03-08 16:02:00,SystemResetWarning,0832.4,5.00,000.00,019.0,018.8,000.0,027.4,020.9,18.3,0000.0,0003.75,0003.25,0003.17
2024-03-08 16:03:00,SystemResetWarning,0832.4,5.00,000.00,019.0,018.6,000.0,027.4,020.9,18.3,0000.0,0003.76,0003.25,0003.17
2024-03-08 16:04:00,SystemResetWarning,0832.4,5.00,000.00,018.9,018.5,000.0,027.4,020.8,18.4,0000.0,0003.77,0003.25,0003.17
2024-03-08 16:05:00,SystemResetWarning,0832.4,5.00,000.00,018.9,018.3,000.0,027.4,020.7,18.5,0000.0,0003.76,0003.24,0003.16
2024-03-08 16:06:00,SystemResetWarning,0832.4,5.00,000.00,018.9,018.2,000.0,027.4,020.7,18.7,0000.0,0003.72,0003.22,0003.15
2024-03-08 16:07:00,SystemResetWarning,0832.5,5.00,000.00,018.9,018.1,000.0,027.4,020.6,18.7,0000.0,0003.71,0003.22,0003.14
2024-03-08 16:08:00,SystemResetWarning,0832.5,4.99,000.00,018.8,018.0,000.0,027.4,020.6,18.7,0000.0,0003.68,0003.21,0003.14
2024-03-08 16:09:00,SystemResetWarning,0832.5,5.00,000.00,018.8,018.0,000.0,027.4,020.6,18.8,0000.0,0003.69,0003.21,0003.14
2024-03-08 16:10:00,SystemResetWarning,0832.5,5.00,000.00,018.8,017.9,000.0,027.4,020.5,18.9,0000.0,0003.69,0003.21,0003.14
2024-03-08 16:11:00,SystemResetWarning,0832.5,4.99,000.00,018.7,017.9,000.0,027.4,020.5,18.9,0000.0,0003.65,0003.20,0003.13
2024-03-08 16:12:00,SystemResetWarning,0832.6,5.00,000.00,018.7,017.8,000.0,027.4,020.4,18.9,0000.0,0003.59,0003.19,0003.13
2024-03-08 16:13:00,SystemResetWarning,0832.5,5.01,000.00,018.7,017.8,000.0,027.4,020.4,19.0,0000.0,0003.61,0003.19,0003.13
2024-03-08 16:14:00,SystemResetWarning,0832.6,5.01,000.00,018.7,017.7,000.0,027.3,020.4,19.2,0000.0,0003.67,0003.20,0003.13
2024-03-08 16:15:00,SystemResetWarning,0832.5,5.00,000.00,018.6,017.7,000.0,027.3,020.3,19.2,0000.0,0003.69,0003.20,0003.13
2024-03-08 16:16:00,SystemResetWarning,0832.6,4.99,000.00,018.6,017.7,000.0,027.3,020.3,19.2,0000.0,0003.68,0003.20,0003.12
2024-03-08 16:17:00,SystemResetWarning,0832.5,5.00,000.00,018.6,017.6,000.0,027.3,020.3,19.2,0000.0,0003.70,0003.19,0003.12
2024-03-08 16:18:00,SystemResetWarning,0832.5,5.00,000.00,018.5,017.6,000.0,027.3,020.3,19.2,0000.0,0003.67,0003.18,0003.10
2024-03-08 16:19:00,SystemResetWarning,0832.6,5.00,000.00,018.5,017.6,000.0,027.3,020.3,19.3,0000.0,0003.65,0003.17,0003.09
2024-03-08 16:20:00,SystemResetWarning,0832.6,5.01,000.00,018.6,018.2,000.0,027.4,020.6,19.2,0000.0,0003.62,0003.16,0003.07
2024-03-08 16:21:00,SystemResetWarning,0832.7,5.00,000.00,018.8,019.1,000.0,027.4,021.2,19.0,0000.0,0003.64,0003.16,0003.08
2024-03-08 16:22:00,SystemResetWarning,0832.7,5.00,000.00,019.0,019.4,000.0,027.4,021.3,18.9,0000.0,0003.69,0003.18,0003.09
2024-03-08 16:23:00,SystemResetWarning,0832.6,4.99,000.00,019.1,019.2,000.0,027.4,021.2,18.8,0000.0,0003.78,0003.20,0003.10
2024-03-08 16:24:00,SystemResetWarning,0832.6,4.99,000.00,019.1,019.0,000.0,027.4,021.1,18.9,0000.0,0003.79,0003.20,0003.11
2024-03-08 16:25:00,SystemResetWarning,0832.6,5.01,000.00,019.0,018.8,000.0,027.4,021.0,18.9,0000.0,0003.83,0003.21,0003.11
2024-03-08 16:26:00,SystemResetWarning,0832.6,5.00,000.00,019.0,018.7,000.0,027.4,020.9,18.9,0000.0,0003.82,0003.22,0003.13
2024-03-08 16:27:00,SystemResetWarning,0832.6,5.00,000.00,019.0,018.5,000.0,027.4,020.8,19.0,0000.0,0003.90,0003.24,0003.14
2024-03-08 16:28:00,SystemResetWarning,0832.6,5.00,000.00,019.0,018.4,000.0,027.4,020.8,19.1,0000.0,0003.96,0003.27,0003.17
2024-03-08 16:29:00,SystemResetWarning,0832.7,5.01,000.00,018.9,018.3,000.0,027.4,020.7,19.2,0000.0,0004.12,0003.31,0003.20
2024-03-08 16:30:00,SystemResetWarning,0832.6,5.01,000.00,018.9,018.2,000.0,027.4,020.7,19.4,0000.0,0004.17,0003.33,0003.22
2024-03-08 16:31:00,SystemResetWarning,0832.7,4.99,000.00,018.9,018.1,000.0,027.4,020.7,19.6,0000.0,0004.21,0003.35,0003.24
2024-03-08 16:32:00,SystemResetWarning,0832.6,5.00,000.00,018.9,018.1,000.0,027.4,020.6,19.6,0000.0,0004.20,0003.35,0003.25
2024-03-08 16:33:00,SystemResetWarning,0832.7,4.99,000.00,018.8,018.0,000.0,027.4,020.6,19.5,0000.0,0004.19,0003.35,0003.25
2024-03-08 16:34:00,SystemResetWarning,0832.7,5.00,000.00,018.8,018.0,000.0,027.4,020.5,19.6,0000.0,0004.13,0003.34,0003.25
2024-03-08 16:35:00,SystemResetWarning,0832.7,5.02,000.00,018.8,017.9,000.0,027.4,020.5,19.7,0000.0,0004.12,0003.34,0003.25
2024-03-08 16:36:00,SystemResetWarning,0832.6,5.00,000.00,018.8,017.9,000.0,027.4,020.5,19.6,0000.0,0004.08,0003.35,0003.26
2024-03-08 16:37:00,SystemResetWarning,0832.7,5.00,000.00,018.7,017.9,000.0,027.4,020.5,19.6,0000.0,0004.04,0003.35,0003.27
2024-03-08 16:38:00,SystemResetWarning,0832.7,5.00,000.00,018.7,017.9,000.0,027.4,020.5,19.7,0000.0,0003.98,0003.34,0003.27
2024-03-08 16:39:00,SystemResetWarning,0832.7,4.99,000.00,018.7,017.9,000.0,027.4,020.4,19.7,0000.0,0003.99,0003.34,0003.26
2024-03-08 16:40:00,SystemResetWarning,0832.6,4.99,000.00,018.7,017.8,000.0,027.3,020.4,19.8,0000.0,0003.85,0003.33,0003.27
2024-03-08 16:41:00,SystemResetWarning,0832.7,5.00,000.00,018.7,017.8,000.0,027.3,020.4,19.9,0000.0,0003.91,0003.35,0003.27
2024-03-08 16:42:00,SystemResetWarning,0832.7,5.00,000.00,018.6,017.8,000.0,027.3,020.4,20.0,0000.0,0003.97,0003.37,0003.28
2024-03-08 16:43:00,SystemResetWarning,0832.7,5.00,000.00,018.6,017.8,000.0,027.3,020.4,19.8,0000.0,0003.98,0003.37,0003.28
2024-03-08 16:44:00,SystemResetWarning,0832.7,5.01,000.00,018.6,017.7,000.0,027.3,020.3,19.8,0000.0,0003.99,0003.38,0003.29
2024-03-08 16:45:00,SystemResetWarning,0832.7,5.01,000.00,018.6,017.7,000.0,027.3,020.3,19.8,0000.0,0004.04,0003.40,0003.31
2024-03-08 16:46:00,SystemResetWarning,0832.7,4.99,000.00,018.6,017.7,000.0,027.3,020.3,19.7,0000.0,0004.21,0003.43,0003.32
2024-03-08 16:47:00,SystemResetWarning,0832.8,4.99,000.00,018.6,017.7,000.0,027.2,020.3,19.8,0000.0,0004.22,0003.43,0003.33
2024-03-08 16:48:00,SystemResetWarning,0832.7,5.01,000.00,018.5,017.6,000.0,027.2,020.2,19.9,0000.0,0004.23,0003.43,0003.33
2024-03-08 16:49:00,SystemResetWarning,0832.7,5.02,000.00,018.5,017.5,000.0,027.2,020.2,20.0,0000.0,0004.27,0003.44,0003.34
2024-03-08 16:50:00,SystemResetWarning,0832.7,4.99,000.00,018.5,017.5,000.0,027.2,020.2,20.1,0000.0,0004.23,0003.44,0003.34
2024-03-08 16:51:00,SystemResetWarning,0832.7,4.99,000.00,018.4,017.5,000.0,027.2,020.2,20.2,0000.0,0004.26,0003.46,0003.36
2024-03-08 16:52:00,SystemResetWarning,0832.7,5.02,000.00,018.4,017.5,000.0,027.2,020.2,20.3,0000.0,0004.23,0003.47,0003.38
2024-03-08 16:53:00,SystemResetWarning,0832.7,5.00,000.00,018.4,017.5,000.0,027.1,020.2,20.3,0000.0,0004.22,0003.48,0003.40
2024-03-08 16:54:00,SystemResetWarning,0832.7,5.00,000.00,018.4,017.4,000.0,027.1,020.1,20.3,0000.0,0004.33,0003.51,0003.41
2024-03-08 16:55:00,SystemResetWarning,0832.7,5.00,000.00,018.4,017.5,000.0,027.1,020.1,20.2,0000.0,0004.43,0003.54,0003.44
2024-03-08 16:56:00,SystemResetWarning,0832.9,5.01,000.00,018.5,018.4,000.0,027.2,020.7,20.1,0000.0,0004.47,0003.56,0003.46
2024-03-08 16:57:00,SystemResetWarning,0832.8,4.99,000.00,018.8,019.3,000.0,027.3,021.3,19.8,0000.0,0004.40,0003.56,0003.48
2024-03-08 16:58:00,SystemResetWarning,0832.8,4.99,000.00,019.0,019.3,000.0,027.3,021.2,19.6,0000.0,0004.37,0003.56,0003.49
2024-03-08 16:59:00,SystemResetWarning,0832.7,5.01,000.00,019.0,019.1,000.0,027.3,021.1,19.6,0000.0,0004.40,0003.59,0003.52
